GW6618 Weather Reports


time (UTC)temp
C
wind
direction
speed
KPH
gust
KPH
rain 1hr
cm
rain 24hr
cm
rain mn
cm
humidity
%
barometer
mb
20260906190803 26 212 9.7 16.1 0.00 0.00 0.00 69 1018.3
20260906190305 26 164 9.7 12.9 0.00 0.00 0.00 70 1018.3
20260906185306 26 202 4.8 19.3 0.00 0.00 0.00 71 1018.3
20260906184804 26 187 9.7 19.3 0.00 0.00 0.00 70 1018.4
20260906184304 26 128 8.0 11.3 0.00 0.00 0.00 71 1018.4
20260906183804 26 194 12.9 16.1 0.00 0.00 0.00 71 1018.2
20260906183304 25 184 9.7 16.1 0.00 0.00 0.00 72 1018.4
20260906182804 25 121 8.0 14.5 0.00 0.00 0.00 72 1018.5
20260906181804 25 168 8.0 11.3 0.00 0.00 0.00 72 1018.5
20260906181304 25 193 6.4 16.1 0.00 0.00 0.00 73 1018.5
20260906180804 25 153 4.8 11.3 0.00 0.00 0.00 73 1018.6
20260906180305 25 113 4.8 11.3 0.00 0.00 0.00 73 1018.5
20260906175804 25 170 8.0 14.5 0.00 0.00 0.00 73 1018.6
20260906175306 25 116 8.0 12.9 0.00 0.00 0.00 74 1018.6
20260906174804 25 136 8.0 12.9 0.00 0.00 0.00 74 1018.7
20260906174304 25 125 4.8 8.0 0.00 0.00 0.00 74 1018.6
20260906173805 25 153 9.7 14.5 0.00 0.00 0.00 74 1018.8
20260906173304 25 148 6.4 14.5 0.00 0.00 0.00 75 1018.8
20260906172804 25 190 8.0 12.9 0.00 0.00 0.00 75 1018.8
20260906171804 25 149 4.8 9.7 0.00 0.00 0.00 76 1018.9
20260906171305 24 122 4.8 12.9 0.00 0.00 0.00 76 1018.9
20260906170303 24 125 4.8 11.3 0.00 0.00 0.00 76 1019.1
20260906165805 24 128 4.8 16.1 0.00 0.00 0.00 77 1019.1
20260906165306 24 170 6.4 12.9 0.00 0.00 0.00 77 1019.2
20260906164804 24 176 4.8 16.1 0.00 0.00 0.00 78 1019.1
20260906164304 24 190 3.2 11.3 0.00 0.00 0.00 77 1019.2
20260906163804 23 94 4.8 9.7 0.00 0.00 0.00 78 1019.2
20260906163304 23 99 4.8 14.5 0.00 0.00 0.00 79 1019.1
20260906162805 23 181 8.0 14.5 0.00 0.00 0.00 78 1019.4
20260906162306 23 117 6.4 16.1 0.00 0.00 0.00 78 1019.4
20260906161804 24 120 9.7 14.5 0.00 0.00 0.00 77 1019.4
20260906160804 24 155 8.0 11.3 0.00 0.00 0.00 78 1019.3
20260906160304 24 193 9.7 14.5 0.00 0.00 0.00 78 1019.4
20260906155804 24 199 11.3 16.1 0.00 0.00 0.00 77 1019.5
20260906155306 24 128 4.8 12.9 0.00 0.00 0.00 78 1019.6
20260906154804 23 114 8.0 14.5 0.00 0.00 0.00 78 1019.6
20260906154304 23 99 4.8 12.9 0.00 0.00 0.00 78 1019.6
20260906153304 23 31 4.8 11.3 0.00 0.00 0.00 79 1019.4
20260906152805 23 112 4.8 11.3 0.00 0.00 0.00 79 1019.4
20260906152307 23 157 8.0 12.9 0.00 0.00 0.00 79 1019.5
20260906151804 23 137 6.4 12.9 0.00 0.00 0.00 79 1019.5
20260906151304 23 122 3.2 9.7 0.00 0.00 0.00 80 1019.5
20260906150804 23 197 8.0 14.5 0.00 0.00 0.00 79 1019.7
20260906150305 23 155 8.0 11.3 0.00 0.00 0.00 78 1019.7
20260906145805 23 154 4.8 12.9 0.00 0.00 0.00 79 1019.5
20260906145306 23 170 6.4 14.5 0.00 0.00 0.00 79 1019.4
20260906144304 23 177 8.0 14.5 0.00 0.00 0.00 80 1019.2
20260906143805 23 130 6.4 14.5 0.00 0.00 0.00 80 1019.3
20260906143304 23 146 6.4 11.3 0.00 0.00 0.00 81 1019.4
20260906142306 23 129 8.0 12.9 0.00 0.00 0.00 81 1019.4
20260906141804 23 148 3.2 9.7 0.00 0.00 0.00 82 1019.4
20260906141304 23 125 8.0 11.3 0.00 0.00 0.00 82 1019.4
20260906140304 22 174 8.0 14.5 0.00 0.00 0.00 82 1019.4
20260906135306 22 151 4.8 11.3 0.00 0.00 0.00 83 1019.4
20260906134804 22 171 4.8 9.7 0.00 0.00 0.00 83 1019.2
20260906134304 22 112 3.2 8.0 0.00 0.00 0.00 84 1019.2
20260906133805 22 114 3.2 8.0 0.00 0.00 0.00 83 1019.4
20260906133304 22 101 4.8 9.7 0.00 0.00 0.00 84 1019.3
20260906132804 22 104 4.8 11.3 0.00 0.00 0.00 84 1019.2
20260906132307 22 135 4.8 11.3 0.00 0.00 0.00 85 1019.1
20260906131804 21 156 4.8 9.7 0.00 0.00 0.00 86 1019.1
20260906131304 21 158 3.2 8.0 0.00 0.00 0.00 86 1019.1
20260906130804 21 94 3.2 8.0 0.00 0.00 0.00 87 1019.0
20260906130304 21 115 3.2 8.0 0.00 0.00 0.00 88 1019.1
20260906125306 21 127 3.2 8.0 0.00 0.00 0.00 89 1019.1
20260906124805 21 150 1.6 9.7 0.00 0.00 0.00 90 1019.2
20260906124305 20 101 0.0 3.2 0.00 0.00 0.00 90 1019.2
20260906123804 20 120 1.6 3.2 0.00 0.00 0.00 91 1019.1
20260906123306 20 242 1.6 3.2 0.00 0.00 0.00 91 1018.9
20260906122804 20 117 0.0 1.6 0.00 0.00 0.00 91 1018.9
20260906122306 20 117 0.0 3.2 0.00 0.00 0.00 91 1019.0
20260906121804 20 117 0.0 0.0 0.00 0.00 0.00 91 1019.1
20260906121305 20 117 0.0 0.0 0.00 0.00 0.00 91 1019.1
20260906120804 20 117 0.0 0.0 0.00 0.00 0.00 91 1019.0
20260906120304 20 117 0.0 0.0 0.00 0.00 0.00 91 1018.8
20260906115805 20 117 0.0 0.0 0.00 0.00 0.00 91 1018.8
20260906114304 20 117 0.0 0.0 0.00 0.00 0.00 90 1018.8
20260906113805 20 117 0.0 3.2 0.00 0.00 0.00 90 1018.9
20260906113305 20 117 0.0 3.2 0.00 0.00 0.00 90 1018.7
20260906112804 20 117 0.0 3.2 0.00 0.00 0.00 90 1018.7
20260906111806 20 117 0.0 1.6 0.00 0.00 0.00 90 1018.7
20260906111304 20 117 0.0 3.2 0.00 0.00 0.00 90 1018.6
20260906110804 20 117 0.0 3.2 0.00 0.00 0.00 90 1018.5
20260906110304 20 117 0.0 3.2 0.00 0.00 0.00 89 1018.5
20260906105804 20 117 1.6 3.2 0.00 0.00 0.00 89 1018.3
20260906105306 20 117 0.0 3.2 0.00 0.00 0.00 89 1018.3
20260906104805 21 117 0.0 0.0 0.00 0.00 0.00 89 1018.4
20260906104305 21 117 0.0 1.6 0.00 0.00 0.00 89 1018.5
20260906103304 21 117 1.6 3.2 0.00 0.00 0.00 88 1018.5
20260906102804 21 175 0.0 3.2 0.00 0.00 0.00 88 1018.4
20260906102307 21 175 0.0 0.0 0.00 0.00 0.00 87 1018.4
20260906101804 21 175 0.0 3.2 0.00 0.00 0.00 87 1018.5
20260906101304 21 175 0.0 0.0 0.00 0.00 0.00 87 1018.4
20260906100804 21 175 0.0 3.2 0.00 0.00 0.00 87 1018.3
20260906100304 21 175 0.0 3.2 0.00 0.00 0.00 87 1018.4
20260906095805 21 175 1.6 3.2 0.00 0.00 0.00 86 1018.3
20260906095306 21 175 0.0 3.2 0.00 0.00 0.00 86 1018.1
20260906093805 22 182 3.2 4.8 0.00 0.00 0.00 85 1017.6
20260906093304 22 181 3.2 4.8 0.00 0.00 0.00 85 1017.6
20260906092804 22 173 0.0 3.2 0.00 0.00 0.00 85 1017.6
20260906092306 22 173 1.6 4.8 0.00 0.00 0.00 84 1017.5
20260906091804 22 185 1.6 3.2 0.00 0.00 0.00 84 1017.5
20260906091304 22 152 0.0 4.8 0.00 0.00 0.00 84 1017.5
20260906090804 22 176 3.2 8.0 0.00 0.00 0.00 84 1017.5
20260906085804 22 174 1.6 4.8 0.00 0.00 0.00 84 1017.6
20260906085306 22 165 1.6 8.0 0.00 0.00 0.00 84 1017.7
20260906083804 22 187 3.2 4.8 0.00 0.00 0.00 84 1017.6
20260906083304 22 119 0.0 3.2 0.00 0.00 0.00 84 1017.6
20260906082804 22 112 1.6 3.2 0.00 0.00 0.00 83 1017.5
20260906082306 22 140 1.6 3.2 0.00 0.00 0.00 84 1017.5
20260906081804 22 137 3.2 8.0 0.00 0.00 0.00 84 1017.5
20260906081304 22 114 0.0 4.8 0.00 0.00 0.00 84 1017.5
20260906080304 22 136 0.0 0.0 0.00 0.00 0.00 83 1017.5
20260906075306 22 136 0.0 0.0 0.00 0.00 0.00 83 1017.4
20260906074804 22 136 0.0 1.6 0.00 0.00 0.00 82 1017.6
20260906074304 22 71 1.6 4.8 0.00 0.00 0.00 82 1017.4
20260906073804 22 161 1.6 3.2 0.00 0.00 0.00 82 1017.5
20260906073303 23 159 3.2 8.0 0.00 0.00 0.00 82 1017.5
20260906072804 23 100 1.6 4.8 0.00 0.00 0.00 82 1017.6
20260906072306 23 102 1.6 4.8 0.00 0.00 0.00 82 1017.7
20260906071804 23 164 3.2 4.8 0.00 0.00 0.00 82 1017.7
20260906071304 23 127 0.0 3.2 0.00 0.00 0.00 81 1017.7
20260906070805 23 127 1.6 3.2 0.00 0.00 0.00 81 1017.9
20260906070304 23 127 0.0 3.2 0.00 0.00 0.00 81 1017.9
20260906065804 23 127 0.0 0.0 0.00 0.00 0.00 81 1017.9
20260906065305 23 127 0.0 1.6 0.00 0.00 0.00 81 1018.0
20260906064304 23 127 0.0 3.2 0.00 0.00 0.00 80 1018.0
20260906063804 23 127 0.0 1.6 0.00 0.00 0.00 80 1018.1
20260906063304 23 127 0.0 1.6 0.00 0.00 0.00 80 1018.0
20260906062804 23 127 1.6 4.8 0.00 0.00 0.00 80 1018.0
20260906062306 23 115 1.6 4.8 0.00 0.00 0.00 80 1018.0
20260906061804 23 134 4.8 8.0 0.00 0.00 0.00 81 1017.9
20260906061304 23 130 1.6 4.8 0.00 0.00 0.00 81 1018.0
20260906060804 23 129 1.6 3.2 0.00 0.00 0.00 82 1017.9
20260906060305 23 173 1.6 3.2 0.00 0.00 0.00 82 1018.0
20260906055804 23 133 0.0 1.6 0.00 0.00 0.00 82 1018.0
20260906055306 23 157 0.0 0.0 0.00 0.00 0.00 82 1018.1
20260906054804 23 157 0.0 0.0 0.00 0.00 0.00 82 1018.0
20260906053804 23 138 0.0 0.0 0.00 0.00 0.00 83 1017.8
20260906053304 23 138 0.0 0.0 0.00 0.00 0.00 83 1017.9
20260906052804 23 138 0.0 1.6 0.00 0.00 0.00 83 1017.8
20260906052306 23 138 0.0 0.0 0.00 0.00 0.00 83 1017.9
20260906050826 23 138 0.0 0.0 0.00 0.00 0.00 82 1017.9
20260906050305 23 138 0.0 0.0 0.00 0.00 0.00 82 1017.9
20260906045804 23 138 0.0 0.0 0.00 0.00 0.00 82 1018.0
20260906045306 23 138 0.0 0.0 0.00 0.00 0.00 82 1018.0
20260906044804 23 138 0.0 0.0 0.00 0.00 0.00 82 1018.1
20260906044305 23 138 0.0 0.0 0.00 0.00 0.00 82 1018.2
20260906043804 23 138 0.0 0.0 0.00 0.00 0.00 82 1018.2
20260906043304 23 138 0.0 0.0 0.00 0.00 0.00 82 1018.2
20260906042804 23 138 0.0 0.0 0.00 0.00 0.00 82 1018.3
20260906042306 23 138 0.0 0.0 0.00 0.00 0.00 82 1018.3
20260906041805 23 138 0.0 0.0 0.00 0.00 0.00 82 1018.3
20260906041304 23 138 0.0 0.0 0.00 0.00 0.00 81 1018.3
20260906040804 23 138 0.0 0.0 0.00 0.00 0.00 81 1018.3
20260906040304 23 138 0.0 0.0 0.00 0.00 0.00 81 1018.2
20260906035804 23 138 0.0 0.0 0.00 0.00 0.00 81 1018.2
20260906035306 23 138 0.0 0.0 0.00 0.00 0.00 81 1018.3
20260906034805 23 138 0.0 0.0 0.00 0.00 0.00 81 1018.2
20260906034304 23 138 0.0 0.0 0.00 0.00 0.00 80 1018.3
20260906033804 23 138 0.0 0.0 0.00 0.00 0.00 80 1018.3
20260906033304 23 138 0.0 0.0 0.00 0.00 0.00 80 1018.3
20260906032805 23 138 0.0 0.0 0.00 0.00 0.00 79 1018.4
20260906032306 24 138 0.0 0.0 0.00 0.00 0.00 79 1018.3
20260906031804 24 138 0.0 0.0 0.00 0.00 0.00 78 1018.3
20260906031304 24 138 0.0 0.0 0.00 0.00 0.00 78 1018.3
20260906030805 24 138 0.0 0.0 0.00 0.00 0.00 78 1018.2
20260906030305 24 138 0.0 1.6 0.00 0.00 0.00 77 1018.2
20260906025805 25 174 0.0 3.2 0.00 0.00 0.00 77 1018.3
20260906025306 25 174 0.0 8.0 0.00 0.00 0.00 77 1018.3
20260906023804 25 160 1.6 4.8 0.00 0.00 0.00 76 1018.4
20260906023304 25 158 1.6 3.2 0.00 0.00 0.00 75 1018.3
20260906022804 25 128 3.2 9.7 0.00 0.00 0.00 75 1018.3
20260906022307 25 186 1.6 9.7 0.00 0.00 0.00 75 1018.1
20260906021804 25 140 3.2 8.0 0.00 0.00 0.00 75 1017.8
20260906021304 25 174 3.2 8.0 0.00 0.00 0.00 75 1017.8
20260906020304 25 136 3.2 4.8 0.00 0.00 0.00 75 1017.5
20260906015306 25 164 4.8 11.3 0.00 0.00 0.00 74 1017.3
20260906014804 26 195 3.2 9.7 0.00 0.00 0.00 74 1017.1
20260906014304 26 160 6.4 9.7 0.00 0.00 0.00 73 1017.0
20260906013804 26 112 4.8 9.7 0.00 0.00 0.00 72 1016.8
20260906013304 26 132 3.2 9.7 0.00 0.00 0.00 71 1016.5
20260906012306 26 133 1.6 9.7 0.00 0.00 0.00 69 1016.3
20260906011804 26 124 3.2 8.0 0.00 0.00 0.00 69 1016.3
20260906011304 26 78 1.6 3.2 0.00 0.00 0.00 68 1016.0
20260906010805 26 115 1.6 3.2 0.00 0.00 0.00 68 1015.9
20260906010304 26 115 0.0 3.2 0.00 0.00 0.00 67 1015.7
20260906004804 27 126 1.6 3.2 0.00 0.00 0.00 66 1015.8
20260906004304 27 123 1.6 3.2 0.00 0.00 0.00 65 1015.8
20260906003804 27 91 1.6 3.2 0.00 0.00 0.00 64 1015.5
20260906003304 27 117 0.0 3.2 0.00 0.00 0.00 64 1015.5
20260906002804 27 117 0.0 4.8 0.00 0.00 0.00 63 1015.4
20260906002306 27 85 3.2 4.8 0.00 0.00 0.00 62 1015.4
20260906001804 27 140 3.2 8.0 0.00 0.00 0.00 62 1015.3
20260906001304 28 88 3.2 8.0 0.00 0.00 0.00 62 1015.3
20260906000804 28 98 3.2 9.7 0.00 0.00 0.00 61 1015.5
20260905235804 28 77 1.6 4.8 0.00 0.00 0.00 60 1015.6
20260905235306 28 106 1.6 4.8 0.00 0.00 0.00 60 1015.5
20260905234804 28 98 3.2 8.0 0.00 0.00 0.00 61 1015.7
20260905234304 28 141 3.2 9.7 0.00 0.00 0.00 61 1015.7
20260905233304 28 104 4.8 8.0 0.00 0.00 0.00 60 1015.4
20260905232805 29 119 3.2 4.8 0.00 0.00 0.00 60 1015.3
20260905232306 29 125 1.6 9.7 0.00 0.00 0.00 61 1015.3
20260905231804 29 101 4.8 9.7 0.00 0.00 0.00 60 1015.3
20260905231304 29 120 4.8 9.7 0.00 0.00 0.00 60 1015.4
20260905230304 30 63 1.6 8.0 0.00 0.00 0.00 60 1015.2
20260905225805 30 37 3.2 4.8 0.00 0.00 0.00 60 1015.0
20260905225306 30 69 3.2 9.7 0.00 0.00 0.00 60 1015.0
20260905224804 30 85 3.2 9.7 0.00 0.00 0.00 60 1014.9
20260905224305 30 134 3.2 8.0 0.00 0.00 0.00 60 1015.0
20260905223804 30 69 3.2 8.0 0.00 0.00 0.00 59 1015.0
20260905223304 30 23 4.8 9.7 0.00 0.00 0.00 58 1015.2
20260905222306 30 41 3.2 11.3 0.00 0.00 0.00 58 1015.1
20260905221804 30 78 3.2 8.0 0.00 0.00 0.00 58 1015.2
20260905220804 30 78 4.8 8.0 0.00 0.00 0.00 58 1015.3
20260905220305 30 32 4.8 9.7 0.00 0.00 0.00 57 1015.3
20260905215306 30 71 3.2 9.7 0.00 0.00 0.00 57 1015.3
20260905214805 30 49 3.2 11.3 0.00 0.00 0.00 58 1015.3
20260905214305 30 63 3.2 11.3 0.00 0.00 0.00 59 1015.3
20260905213304 30 58 3.2 9.7 0.00 0.00 0.00 59 1015.4
20260905212804 30 114 4.8 9.7 0.00 0.00 0.00 58 1015.4
20260905211805 30 61 3.2 8.0 0.00 0.00 0.00 61 1015.1
20260905211305 29 202 8.0 20.9 0.00 0.00 0.00 61 1015.1
20260905210805 29 86 4.8 14.5 0.00 0.00 0.00 62 1015.3
20260905210304 30 47 3.2 9.7 0.00 0.00 0.00 62 1015.6
20260905205805 30 91 6.4 9.7 0.00 0.00 0.00 62 1015.8
20260905204804 29 51 4.8 11.3 0.00 0.00 0.00 62 1016.0
20260905204304 29 46 4.8 11.3 0.00 0.00 0.00 61 1016.1
20260905203805 30 104 4.8 9.7 0.00 0.00 0.00 61 1016.3
20260905203304 29 44 4.8 8.0 0.00 0.00 0.00 62 1016.4
20260905202804 29 89 3.2 8.0 0.00 0.00 0.00 63 1016.4
20260905202306 28 55 3.2 8.0 0.00 0.00 0.00 65 1016.5
20260905201804 28 77 1.6 4.8 0.00 0.00 0.00 64 1016.6
20260905200303 29 139 3.2 8.0 0.00 0.00 0.00 64 1017.0
20260905195805 29 95 3.2 9.7 0.00 0.00 0.00 63 1017.0
20260905195306 29 123 3.2 12.9 0.00 0.00 0.00 63 1017.1
20260905194804 28 135 4.8 9.7 0.00 0.00 0.00 64 1017.2
20260905194306 28 83 4.8 9.7 0.00 0.00 0.00 64 1017.1
20260905193804 28 150 1.6 4.8 0.00 0.00 0.00 64 1017.4
20260905193304 28 149 3.2 8.0 0.00 0.00 0.00 63 1017.3
20260905192805 28 69 1.6 8.0 0.00 0.00 0.00 64 1017.3
20260905192306 28 108 1.6 9.7 0.00 0.00 0.00 66 1017.3
20260905191804 28 131 3.2 8.0 0.00 0.00 0.00 65 1017.3